Weather History for Buckhannon, WV

Change the Weather History Date:

Sunday, October 6, 2013

  Actual Average (KEKN) Record (KEKN)
Temperature  
Mean Temperature 73 °F 54 °F  
Max Temperature 84 °F 67 °F 87 °F (1900)
Min Temperature 62 °F 42 °F 22 °F (1965)
Degree Days  
Heating Degree Days 0 11  
Month to date heating degree days 59  
Since 1 July heating degree days 219  
Cooling Degree Days 8 0  
Month to date cooling degree days 0  
Year to date cooling degree days 471  
Growing Degree Days 23 (Base 50)    
Moisture  
Dew Point 59 °F    
Average Humidity 63    
Maximum Humidity 94    
Minimum Humidity 37    
Precipitation  
Precipitation 0.00 in 0.10 in 1.60 in (1957)
Month to date precipitation 0.55  
Year to date precipitation 36.99  
Snow  
Snow 0.00 in - - ()
Month to date snowfall  
Since 1 September snowfall  
Snow Depth -    
Sea Level Pressure  
Sea Level Pressure 29.96 in    
Wind  
Wind Speed 4 mph (South)    
Max Wind Speed 16 mph    
Max Gust Speed 21 mph    
Visibility 10 miles    
Events      
T = Trace of Precipitation, MM = Missing Value Source: NWS Daily Summary

Daily Weather History Graph

Daily Weather History Graph

Search for Another Location

Airport:

Trip Planner

Search our weather history database for the weather conditions in past years. The results will help you decide how hot, cold, wet, or windy it might be!

Date:

Astronomy

Oct. 06, 2013 Rise Set
Actual Time 7:22 AM EDT 6:55 PM EDT
Civil Twilight 6:55 AM EDT 7:22 PM EDT
Nautical Twilight 6:24 AM EDT 7:53 PM EDT
Astronomical Twilight 5:53 AM EDT 8:24 PM EDT
Moon 9:03 AM EDT (10/6) 7:55 PM EDT (10/6)
Length of Visible Light 12h 26m
Length of Day
11h 33m
Waxing Crescent, 3% of the Moon is Illuminated
Oct 6
Waxing Crescent
Oct 11
First Quarter
Oct 18
Full
Oct 26
Last Quarter
Nov 3
New

Hourly Weather History & Observations

Time (EDT) Temp. Heat Index Dew Point Humidity Pressure Visibility Wind Dir Wind Speed Gust Speed Precip Events Conditions
12:15 AM 66.2 °F - 64.4 °F 94% 30.05 in 10.0 mi Calm Calm - N/A   Clear
12:35 AM 66.2 °F - 64.4 °F 94% 30.04 in 10.0 mi Calm Calm - N/A   Clear
12:55 AM 66.2 °F - 62.6 °F 88% 30.04 in 10.0 mi Calm Calm - N/A   Clear
1:15 AM 66.2 °F - 64.4 °F 94% 30.04 in 10.0 mi Calm Calm - N/A   Clear
1:35 AM 66.2 °F - 62.6 °F 88% 30.04 in 10.0 mi Calm Calm - N/A   Clear
1:55 AM 68.0 °F - 62.6 °F 83% 30.04 in 10.0 mi Calm Calm - N/A   Clear
2:15 AM 68.0 °F - 60.8 °F 78% 30.04 in 10.0 mi Calm Calm - N/A   Clear
2:35 AM 68.0 °F - 60.8 °F 78% 30.03 in 10.0 mi Calm Calm - N/A   Clear
2:55 AM 68.0 °F - 60.8 °F 78% 30.02 in 10.0 mi Calm Calm - N/A   Clear
3:15 AM 66.2 °F - 60.8 °F 83% 30.02 in 10.0 mi Calm Calm - N/A   Clear
3:35 AM 68.0 °F - 60.8 °F 78% 30.02 in 10.0 mi Calm Calm - N/A   Clear
3:55 AM 66.2 °F - 60.8 °F 83% 30.02 in 10.0 mi Calm Calm - N/A   Clear
4:15 AM 66.2 °F - 60.8 °F 83% 30.01 in 10.0 mi Calm Calm - N/A   Clear
4:35 AM 66.2 °F - 60.8 °F 83% 30.01 in 10.0 mi Calm Calm - N/A   Clear
4:55 AM 66.2 °F - 60.8 °F 83% 30.01 in 10.0 mi Calm Calm - N/A   Clear
5:15 AM 66.2 °F - 60.8 °F 83% 30.01 in 10.0 mi Calm Calm - N/A   Clear
5:35 AM 64.4 °F - 60.8 °F 88% 30.01 in 10.0 mi Calm Calm - N/A   Clear
5:55 AM 64.4 °F - 60.8 °F 88% 30.01 in 10.0 mi Calm Calm - N/A   Clear
6:15 AM 64.4 °F - 60.8 °F 88% 30.01 in 10.0 mi Calm Calm - N/A   Clear
6:35 AM 64.4 °F - 60.8 °F 88% 30.02 in 10.0 mi Calm Calm - N/A   Clear
6:55 AM 64.4 °F - 60.8 °F 88% 30.02 in 10.0 mi Calm Calm - N/A   Clear
7:15 AM 64.4 °F - 59.0 °F 83% 30.02 in 10.0 mi Calm Calm - N/A   Clear
7:35 AM 62.6 °F - 60.8 °F 94% 30.02 in 10.0 mi Calm Calm - N/A   Clear
7:55 AM 64.4 °F - 59.0 °F 83% 30.03 in 10.0 mi Calm Calm - N/A   Clear
8:15 AM 64.4 °F - 60.8 °F 88% 30.03 in 10.0 mi Calm Calm - N/A   Clear
8:35 AM 66.2 °F - 59.0 °F 78% 30.03 in 10.0 mi Calm Calm - N/A   Clear
8:55 AM 68.0 °F - 60.8 °F 78% 30.03 in 10.0 mi Calm Calm - N/A   Clear
9:15 AM 69.8 °F - 60.8 °F 73% 30.02 in 10.0 mi Calm Calm - N/A   Clear
9:35 AM 71.6 °F - 60.8 °F 69% 30.02 in 10.0 mi South 3.5 mph - N/A   Clear
9:55 AM 73.4 °F - 60.8 °F 65% 30.02 in 10.0 mi South 4.6 mph - N/A   Clear
10:15 AM 75.2 °F - 60.8 °F 61% 30.02 in 10.0 mi South 6.9 mph - N/A   Clear
10:35 AM 77.0 °F - 60.8 °F 57% 30.01 in 10.0 mi South 9.2 mph - N/A   Clear
10:55 AM 78.8 °F - 57.2 °F 47% 30.01 in 10.0 mi SSW 13.8 mph - N/A   Clear
11:15 AM 80.6 °F 80.8 °F 57.2 °F 45% 30.01 in 10.0 mi SSW 12.7 mph 19.6 mph N/A   Clear
11:35 AM 80.6 °F 80.8 °F 57.2 °F 45% 30.00 in 10.0 mi South 10.4 mph 18.4 mph N/A   Clear
11:55 AM 80.6 °F 80.8 °F 57.2 °F 45% 30.00 in 10.0 mi SSW 15.0 mph 20.7 mph N/A   Clear
12:15 PM 82.4 °F 82.0 °F 57.2 °F 42% 29.99 in 10.0 mi South 11.5 mph 18.4 mph N/A   Clear
12:35 PM 82.4 °F 82.0 °F 57.2 °F 42% 29.98 in 10.0 mi SSW 9.2 mph - N/A   Clear
12:55 PM 84.2 °F 83.8 °F 59.0 °F 42% 29.98 in 10.0 mi SW 6.9 mph 16.1 mph N/A   Clear
1:15 PM 82.4 °F 82.5 °F 59.0 °F 45% 29.96 in 10.0 mi SSW 8.1 mph - N/A   Partly Cloudy
1:35 PM 84.2 °F 83.5 °F 57.2 °F 40% 29.95 in 10.0 mi SW 11.5 mph 19.6 mph N/A   Partly Cloudy
1:55 PM 84.2 °F 83.5 °F 57.2 °F 40% 29.94 in 10.0 mi SW 12.7 mph - N/A   Clear
2:15 PM 84.2 °F 83.5 °F 57.2 °F 40% 29.93 in 10.0 mi SW 12.7 mph 17.3 mph N/A   Clear
2:35 PM 84.2 °F 83.5 °F 57.2 °F 40% 29.92 in 10.0 mi SSW 9.2 mph - N/A   Clear
2:55 PM 82.4 °F 81.7 °F 55.4 °F 39% 29.92 in 10.0 mi SW 16.1 mph - N/A   Partly Cloudy
3:15 PM 84.2 °F 83.5 °F 57.2 °F 40% 29.91 in 10.0 mi SW 11.5 mph - N/A   Partly Cloudy
3:35 PM 84.2 °F 83.5 °F 57.2 °F 40% 29.90 in 10.0 mi SSW 9.2 mph - N/A   Clear
3:55 PM 82.4 °F 81.7 °F 55.4 °F 39% 29.90 in 10.0 mi South 9.2 mph - N/A   Clear
4:15 PM 84.2 °F 83.5 °F 57.2 °F 40% 29.89 in 10.0 mi South 11.5 mph - N/A   Clear
4:35 PM 82.4 °F 81.7 °F 55.4 °F 39% 29.88 in 10.0 mi South 6.9 mph - N/A   Clear
4:55 PM 84.2 °F 83.0 °F 55.4 °F 37% 29.87 in 10.0 mi South 10.4 mph - N/A   Partly Cloudy
5:15 PM 82.4 °F 81.7 °F 55.4 °F 39% 29.87 in 10.0 mi South 8.1 mph - N/A   Clear
5:35 PM 82.4 °F 81.7 °F 55.4 °F 39% 29.87 in 10.0 mi SSE 12.7 mph 17.3 mph N/A   Partly Cloudy
5:55 PM 80.6 °F 80.8 °F 57.2 °F 45% 29.87 in 10.0 mi SSE 11.5 mph - N/A   Clear
6:15 PM 78.8 °F - 57.2 °F 47% 29.88 in 10.0 mi SSE 11.5 mph 18.4 mph N/A   Clear
6:35 PM 77.0 °F - 57.2 °F 50% 29.88 in 10.0 mi SSE 8.1 mph - N/A   Clear
6:55 PM 77.0 °F - 57.2 °F 50% 29.88 in 10.0 mi SSE 11.5 mph 17.3 mph N/A   Clear
7:15 PM 75.2 °F - 57.2 °F 53% 29.88 in 10.0 mi SSE 12.7 mph 17.3 mph N/A   Clear
7:35 PM 75.2 °F - 57.2 °F 53% 29.88 in 10.0 mi SSE 10.4 mph - N/A   Clear
7:55 PM 73.4 °F - 57.2 °F 57% 29.87 in 10.0 mi SSE 10.4 mph - N/A   Clear
8:15 PM 73.4 °F - 57.2 °F 57% 29.87 in 10.0 mi SSE 9.2 mph - N/A   Clear
8:35 PM 73.4 °F - 57.2 °F 57% 29.87 in 10.0 mi SSE 11.5 mph 17.3 mph N/A   Clear
8:55 PM 73.4 °F - 57.2 °F 57% 29.87 in 10.0 mi SSE 10.4 mph - N/A   Clear
9:15 PM 73.4 °F - 57.2 °F 57% 29.87 in 10.0 mi SSE 10.4 mph - N/A   Clear
9:35 PM 71.6 °F - 57.2 °F 60% 29.87 in 10.0 mi South 9.2 mph - N/A   Clear
9:55 PM 71.6 °F - 57.2 °F 60% 29.87 in 10.0 mi SSE 11.5 mph - N/A   Clear
10:35 PM 71.6 °F - 57.2 °F 60% 29.86 in 10.0 mi South 11.5 mph - N/A   Clear
10:55 PM 71.6 °F - 57.2 °F 60% 29.87 in 10.0 mi South 6.9 mph - N/A   Clear
11:15 PM 69.8 °F - 57.2 °F 64% 29.87 in 10.0 mi South 6.9 mph - N/A   Clear
11:35 PM 71.6 °F - 57.2 °F 60% 29.85 in 10.0 mi South 11.5 mph 16.1 mph N/A   Clear
11:55 PM 69.8 °F - 57.2 °F 64% 29.85 in 10.0 mi South 8.1 mph - N/A   Clear